Regional Weather Roundup
Issued by NWS

Home | Current Version | Previous Version | Graphics & Text | Print | Product List | Glossary Off
Versions: 1 2 3 4 5 6 7 8 9 10 11 12 13 14 15 16 17 18 19 20 21 22 23 24 25 26 27 28 29 30 31 32 33 34 35 36 37 38 39 40 41 42 43 44 45 46 47 48 49 50

000
ASUS43 KMKX 241811
RWRWI

WISCONSIN REGIONAL WEATHER ROUNDUP
NATIONAL WEATHER SERVICE MILWAUKEE/SULLIVAN WI
1200 PM CST MON NOV 24 2014

NOTE: "FAIR" INDICATES FEW OR NO CLOUDS BELOW 12,000 FEET WITH NO
SIGNIFICANT WEATHER AND/OR OBSTRUCTIONS TO VISIBILITY.

WIZ001-002-006>008-014>016-023>028-241900-
NORTHWEST WISCONSIN

CITY           SKY/WX    TMP DP  RH WIND       PRES   REMARKS
SUPERIOR ARPT  LGT SNOW  28  25  86 NW14      29.37R WCI  17
6HR MIN TEMP:  28; 6HR MAX TEMP:  34; 6HR PCP:  0.04;

ASHLAND        LGT SNOW  30  28  92 N17       29.31R FOG     WCI  18
6HR MIN TEMP:  30; 6HR MAX TEMP:  33; 6HR PCP:  0.21;

HAYWARD        SNOW      31  29  92 VRB3      29.28R VSB 1/2
6HR MIN TEMP:  31; 6HR MAX TEMP:  33; 6HR PCP:  0.05;

SIREN          LGT SNOW  26  23  87 NW14G25   29.38R WCI  15
6HR MIN TEMP:  26; 6HR MAX TEMP:  31;

CUMBERLAND     LGT SNOW  27  23  86 NW20G28   29.31R WCI  13
RICE LAKE      LGT SNOW  28  24  86 W15G25    29.32S WCI  16
6HR MIN TEMP:  28; 6HR MAX TEMP:  34;

CHETEK         SNOW      27  25  94 W12G21    29.31R VSB 1/2 WCI  17
6HR MIN TEMP:  27; 6HR MAX TEMP:  33; 6HR PCP:  0.10;

LADYSMITH      LGT SNOW  32  30  94 NW17      29.26R VSB 1   WCI  20
6HR MIN TEMP:  32; 6HR MAX TEMP:  34;

EAU CLAIRE     SNOW      28  25  88 NW14      29.31R VSB 1/2 WCI  17
6HR MIN TEMP:  28; 6HR MAX TEMP:  35; 6HR PCP:  0.02;

MENOMONIE      LGT SNOW  28  25  89 W17G25    29.34R WCI  15
6HR MIN TEMP:  28; 6HR MAX TEMP:  34;

NEW RICHMOND   CLOUDY    24  23  93 NW21G28   29.40R FOG     WCI  10
6HR MIN TEMP:  24; 6HR MAX TEMP:  31; 6HR PCP:  0.01;

OSCEOLA        LGT SNOW  25  24  98 NW15G26   29.44S WCI  12
6HR MIN TEMP:  25; 6HR MAX TEMP:  31;

$$

WIZ003>005-009-010-017-018-241900-
NORTH CENTRAL WISCONSIN

CITY           SKY/WX    TMP DP  RH WIND       PRES   REMARKS
MANITOWISH WTR LGT SNOW  30  30  98 N10G18    29.17R WCI  21
6HR MIN TEMP:  30; 6HR MAX TEMP:  34; 6HR PCP:  0.02;

ARBOR VITAE    LGT SNOW  33  31  92 N18G24    29.15R WCI  22
6HR MIN TEMP:  33; 6HR MAX TEMP:  37; 6HR PCP:  0.01;

WOODRUFF       LGT SNOW  33  31  92 N18G24    29.15R WCI  22
6HR MIN TEMP:  33; 6HR MAX TEMP:  37; 6HR PCP:  0.01;

RHINELANDER    LGT SNOW  32  31  96 VRB3      29.13R VSB 3/4
6HR MIN TEMP:  32; 6HR MAX TEMP:  36; 6HR PCP:  0.06;

EAGLE RIVER    LGT SNOW  31  30  94 N17       29.13R WCI  20
6HR MIN TEMP:  31; 6HR MAX TEMP:  36; 6HR PCP:  0.01;

LAND O LAKES   LGT SNOW  30  27  89 N15       29.15R WCI  19
6HR MIN TEMP:  30; 6HR MAX TEMP:  37;

PHILLIPS       LGT SNOW  31  30  95 N9        29.19R VSB 1   WCI  23
TOMAHAWK       SNOW      32  32  99 NW14      29.15R VSB 1/2 WCI  22
6HR MIN TEMP:  32; 6HR MAX TEMP:  35; 6HR PCP:  0.10;

MEDFORD        LGT SNOW  32  30  95 NW12G17   29.17R VSB 1   WCI  23
6HR MIN TEMP:  32; 6HR MAX TEMP:  34; 6HR PCP:  0.01;

MERRILL        LGT SNOW  33  33  98 NW9       29.14R WCI  26
6HR MIN TEMP:  33; 6HR MAX TEMP:  37; 6HR PCP:  0.01;

$$

WIZ029-030-035-036-043>047-241900-
CENTRAL WISCONSIN

CITY           SKY/WX    TMP DP  RH WIND       PRES   REMARKS
WAUSAU         LGT SNOW  33  32  96 NW12      29.13R FOG     WCI  24
6HR MIN TEMP:  33; 6HR MAX TEMP:  39; 6HR PCP:  0.07;

MOSINEE        NOT AVBL
MARSHFIELD     SNOW      32  29  88 NW21G29   29.19R VSB 1/2 WCI  20
6HR MIN TEMP:  32; 6HR MAX TEMP:  37; 6HR PCP:  0.04;

STEVENS POINT  MIX PCPN  31  31  99 W8        29.15R VSB 3/4 WCI  24
6HR MIN TEMP:  31; 6HR MAX TEMP:  39; 6HR PCP:  0.01;

WAUPACA        RAIN      39  38  94 W12       29.13R WCI  32
6HR MIN TEMP:  39; 6HR MAX TEMP:  45; 6HR PCP:  0.01;

WAUTOMA        CLOUDY    35  34  96 NW14G21   29.17R FOG     WCI  26
6HR MIN TEMP:  35; 6HR MAX TEMP:  41; 6HR PCP: TRACE;

WISC RAPIDS    SNOW      33  30  88 W21G28    29.19R WCI  21
6HR MIN TEMP:  33; 6HR MAX TEMP:  39; 6HR PCP:  0.19;

CAMP DOUGLAS   SNOW      30  30 100 W20G30    29.24R VSB 1/4 WCI  18
                                      6HR PCP:  0.11;

$$

WIZ011>013-019>022-031-037>040-048>050-241900-
NORTHEAST WISCONSIN

CITY           SKY/WX    TMP DP  RH WIND       PRES   REMARKS
ANTIGO         LGT RAIN  34  33  97 N13       29.10R WCI  25
6HR MIN TEMP:  34; 6HR MAX TEMP:  37; 6HR PCP:  0.02;

SHAWANO        DRIZZLE   41  40  95 NW5       29.09R
6HR MIN TEMP:  41; 6HR MAX TEMP:  43;

OCONTO         CLOUDY    41  39  93 N12       29.06R
6HR MIN TEMP:  39; 6HR MAX TEMP:  43;

STURGEON BAY   CLOUDY    41  37  87 NW13      29.06R
6HR MIN TEMP:  41; 6HR MAX TEMP:  43;

GREEN BAY      CLOUDY    43  39  86 NW9       29.07R
6HR MIN TEMP:  40; 6HR MAX TEMP:  44;

MANITOWOC      LGT RAIN  44  42  93 NW10      29.07R
6HR MIN TEMP:  42; 6HR MAX TEMP:  44; 6HR PCP:  0.02;

APPLETON       LGT RAIN  39  39 100 W14       29.09R FOG     WCI  31
CLINTONVILLE   LGT RAIN  37  37 100 W8        29.10R WCI  31
OSHKOSH        LGT RAIN  39  36  89 W14       29.11R FOG     WCI  31
6HR MIN TEMP:  39; 6HR MAX TEMP:  43; 6HR PCP:  0.08;

$$

WIZ032>034-041-042-053>061-241900-
SOUTHWEST WISCONSIN

CITY           SKY/WX    TMP DP  RH WIND       PRES   REMARKS
LA CROSSE      LGT SNOW  29  24  82 W17       29.35R VSB 1   WCI  17
6HR MIN TEMP:  29; 6HR MAX TEMP:  36; 6HR PCP:  0.16;

SPARTA         LGT SNOW  29  28  95 W13G21    29.30R VSB 3/4 WCI  19
6HR MIN TEMP:  29; 6HR MAX TEMP:  35; 6HR PCP:  0.03;

VIROQUA        CLOUDY    27  27 100 W14G24    29.30R WCI  16
6HR MIN TEMP:  27; 6HR MAX TEMP:  33;

BOSCOBEL       LGT SNOW  30  25  81 W15G22    29.35R VSB 1   WCI  19
6HR MIN TEMP:  30; 6HR MAX TEMP:  37; 6HR PCP:  0.12;

PRAIRIE DU CHI LGT SNOW  26  22  84 W20G25    29.39R WCI  13
6HR MIN TEMP:  26; 6HR MAX TEMP:  33;

PLATTEVILLE    CLOUDY    27  25  91 W21G33    29.36R WCI  13
6HR MIN TEMP:  27; 6HR MAX TEMP:  35;

$$

WIZ056-057-062-063-064-067-068-241900-
SOUTH CENTRAL WISCONSIN

CITY           SKY/WX    TMP DP  RH WIND       PRES   REMARKS
REEDSBURG      LGT SNOW  30  29  95 W14G24    29.24R VSB 3/4 WCI  19
6HR MIN TEMP:  30; 6HR MAX TEMP:  37; 6HR PCP:  0.11;

BARABOO/DELLS  SNOW      31  30  96 W9G18     29.22R VSB 1/2 WCI  23
6HR MIN TEMP:  31; 6HR MAX TEMP:  37; 6HR PCP:  0.09;

LONE ROCK      SNOW      33  27  78 W18       29.29R VSB 1/2 WCI  22
6HR MIN TEMP:  33; 6HR MAX TEMP:  43; 6HR PCP:  0.12;

MINERAL POINT  LGT SNOW  30  30 100 W21G29    29.30R VSB 1   WCI  17
MADISON        LGT SNOW  32  30  92 W14G23    29.23R VSB 3/4 WCI  22
6HR MIN TEMP:  33; 6HR MAX TEMP:  40; 6HR PCP:  0.10;

MIDDLETON      CLOUDY    33  32  96 W20       29.24R WCI  21
6HR MIN TEMP:  33; 6HR MAX TEMP:  40; 6HR PCP:  0.01;

WATERTOWN      LGT SNOW  33  33 100 W13G22    29.19R WCI  23
6HR MIN TEMP:  33; 6HR MAX TEMP:  43;

MONROE         LGT SNOW  30  28  93 W30       29.29R VSB 3/4 WCI  15
JANESVILLE     LGT SNOW  32  30  93 W20       29.26R VSB 3/4 WCI  20
$$

WIZ051-052-058>065-066-070>072-241900-
SOUTHEAST WISCONSIN

CITY           SKY/WX    TMP DP  RH WIND       PRES   REMARKS
MILWAUKEE      LGT RAIN  39  35  86 W15G24    29.16R WCI  31
6HR MIN TEMP:  39; 6HR MAX TEMP:  47; 6HR PCP:  0.07;

WAUKESHA       RAIN      36  34  93 W20       29.17R FOG     WCI  25
MILWAUKEE/TIMM LGT RAIN  37  36  93 W14G26    29.15R WCI  29
RACINE         LGT SNOW  34  32  92 W15G28    29.20R FOG     WCI  24
6HR MIN TEMP:  37; 6HR MAX TEMP:  47; 6HR PCP:  0.12;

BURLINGTON     SNOW      32  31  98 W15G23    29.22R VSB 1/2 WCI  21
6HR MIN TEMP:  32; 6HR MAX TEMP:  43; 6HR PCP:  0.11;

KENOSHA        SNOW      33  32  96 W20G30    29.20R VSB 1/2 WCI  21
6HR MIN TEMP:  33; 6HR MAX TEMP:  46; 6HR PCP:  0.10;

FOND DU LAC    RAIN      38  35  89 W14G22    29.13R FOG     WCI  30
6HR MIN TEMP:  38; 6HR MAX TEMP:  43; 6HR PCP:  0.03;

SHEBOYGAN      LGT RAIN  41  39  93 W13       29.09R
6HR MIN TEMP:  41; 6HR MAX TEMP:  44; 6HR PCP:  0.05;

WEST BEND      DRIZZLE   36  34  93 W18G26    29.13R WCI  25
JUNEAU         LGT RAIN  35  33  95 W16G23    29.18R WCI  24
6HR MIN TEMP:  35; 6HR MAX TEMP:  42; 6HR PCP:  0.02;

$$

LSZ147-162-241900-
LAKE SUPERIOR

STATION/POSITION TIME  TEMP    WIND        PRES    WAVE
                       AIR SEA DIR/SP/G            HT/PER
                 (UTC) (F)     (DEG/KT/KT) (MB)    (FT/S)
DEVILS ISLAND    1800   26     330/ 25/ 28  994.1R
PORT WING        1700   31     340/ 20/ 26  993.6R
SAXON HARBOR     1700   32     360/ 18/ 25  991.5
$$

LMZ867-665-643>646-241900-
LAKE MICHIGAN

STATION/POSITION TIME  TEMP    WIND        PRES    WAVE
                       AIR SEA DIR/SP/G            HT/PER


USA.gov is the U.S. government's official web portal to all federal, state and local government web resources and services.